Regional Weather Roundup
Issued by NWS Newport/Morehead, NC

Current Version | Previous Version | Text Only | Print | Product List | Glossary Off
Versions: 1 2 3 4 5 6 7 8 9 10 11 12 13 14 15 16 17 18 19 20 21 22 23 24 25 26 27 28 29 30 31 32 33 34 35 36 37 38 39 40 41 42 43 44 45 46 47 48 49 50
000 ASUS42 KMHX 270813 RWRMHX WEATHER ROUNDUP FOR EASTERN NORTH CAROLINA NATIONAL WEATHER SERVICE NEWPORT/MOREHEAD CITY NC 400 AM EDT WED MAY 27 2015 NOTE: "FAIR" INDICATES FEW OR NO CLOUDS BELOW 12,000 FEET WITH NO SIGNIFICANT WEATHER AND/OR OBSTRUCTIONS TO VISIBILITY NCZ015>017-031-032-045>047-102-103-270900- NORTH COAST CITY SKY/WX TMP DP RH WIND PRES REMARKS EDENTON CLOUDY 71 66 84 S8 30.24F ELIZABETH CITY CLOUDY 71 66 84 S7 30.24F KITTY HAWK MOSUNNY 71 64 79 S5 30.24F MANTEO PTCLDY 72 65 80 SW14 30.26S $$ NCZ045>047-081-094-103-104-270900- CENTRAL COAST CITY SKY/WX TMP DP RH WIND PRES REMARKS FRISCO PTCLDY 72 61 68 SW14 30.26F SWANQUARTER N/A 73 N/A N/A S10G17 30.21S $$ NCZ095-097-098-100-101-270900- SOUTHERN COAST CITY SKY/WX TMP DP RH WIND PRES REMARKS BEAUFORT CLOUDY 74 67 78 S7 30.25F CEDAR ISLAND N/A 72 N/A N/A SE7 30.30S JACKSONVILLE CLOUDY 73 68 84 CALM 30.23F PINEY ISLAND MOSUNNY N/A N/A N/A S3 30.25F WILMINGTON CLOUDY 74 70 87 S5 30.22F $$ NCZ011>013-027>030-043-044-078>080-089-090>093-098-270900- COASTAL PLAIN CITY SKY/WX TMP DP RH WIND PRES REMARKS AHOSKIE PTCLDY 68 66 93 S6 30.22S CLINTON MOCLDY 71 71 98 CALM 30.22S ELIZABETHTOWN CLOUDY 71 71 100 SE3 30.21F GOLDSBORO CLOUDY 72 70 94 CALM 30.19F GREENVILLE CLOUDY 72 70 94 S8 30.23F HAVELOCK CLOUDY 72 66 81 SE3 30.25F KENANSVILLE CLOUDY 71 69 94 CALM 30.23F KINSTON MOCLDY 72 69 89 SE6 30.23S NEW BERN CLOUDY 70 66 87 S5 30.25F RICHLANDS CLOUDY 72 64 78 CALM 30.23F ROCKY MOUNT MOCLDY 71 69 93 S3 30.21F WASHINGTON CLOUDY 71 67 87 S6 30.24F WHITEVILLE CLOUDY 72 69 92 SE3 30.21S $$ AMZ130-135-150-152-154-156-158-170-250-252-270-ANZ085-086-088-633-658-670-270900- MARINE OBSERVATIONS STATION/POSITION TIME TEMP WIND PRES WAVE SWELL AIR SEA DIR/SP/G HT/PER HT/PER (UTC) (F) (DEG/KT/KT) (MB) (FT/S) (FT/S) CHESAPEAKE LIGHT 0700 67 200/ 18/ 19 1024.3 64 E VA BEACH 0750 65 62 180/ 10/ 10 1024.2 3/ 5 3/ 5 DUCK 0700 57 200/ 12/ 15 1023.4 2 E DUCK 0711 61 N/A 2/ 5 OREGON INLET 0700 76 190/ 17/ 19 1024.9 13E OREGON INLT 0800 67 N/A 3/ 5 HATTERAS CG 0700 75 180/ 5/ 10 1024.8 DIAMOND BUOY 0750 74 78 190/ 12/ 16 1024.9 3/ 5 2/ 7 CAPE LOOKOUT 0800 73 200/ 5/ 6 1024.1 BEAUFORT LAB 0700 75 210/ 7/ 10 1023.7 27 SE WRIGHTSVLE 0700 72 76 200/ 10/ 12 N/A 5 SE WRIGHTSVLE 0708 76 76 200/ 12/ 16 1023.5 225 S CAPE HAT 0750 72 74 80/ 6/ 8 1025.2 4/ 7 3/ 7 41 SE CHARLESTON 0750 78 76 160/ 10/ 10 1022.4 3/ 7 3/ 7 $$

USA.gov is the U.S. government's official web portal to all federal, state and local government web resources and services.